Regional Weather Roundup
Issued by NWS Nashville, TN

Home | Current Version | Previous Version | Text Only | Print | Product List | Glossary On
Versions: 1 2 3 4 5 6 7 8 9 10 11 12 13 14 15 16 17 18 19 20 21 22 23 24 25 26 27
000
ASUS44 KOHX 270910
RWROHX
MIDDLE TENNESSEE HOURLY WEATHER ROUNDUP
NATIONAL WEATHER SERVICE NASHVILLE TN
400 AM CDT WED JUL 27 2016

NOTE: "FAIR" INDICATES FEW OR NO CLOUDS BELOW 12,000 FEET WITH
NO SIGNIFICANT WEATHER AND/OR OBSTRUCTIONS TO VISIBILITY.

* THESE REPORTS ARE NOT UNDER NWS QUALITY CONTROL AND MAY NOT
  REPORT WEATHER SUCH AS PRECIPITATION AND FOG.


TNZ005>011-023>034-057-059-062>066-078-080-271000
...NORTHERN MIDDLE TENNESSEE...

CITY           SKY/WX    TMP DP  RH WIND       PRES   REMARKS
CLARKSVILLE    CLEAR     75  73  93 CALM      29.97S
CROSSVILLE     CLEAR     73  69  87 VRB3      30.07R
NASHVILLE      MOCLDY    74  72  93 S3        29.98S
SMYRNA         CLEAR     74  73  96 CALM      29.99S
SPARTA         CLEAR     75  73  94 CALM      30.00S
$$
TNZ056-058-060-061-075>077-079-093>097-271000
...SOUTHERN MIDDLE TENNESSEE...

CITY           SKY/WX    TMP DP  RH WIND       PRES   REMARKS
COLUMBIA       CLEAR    N/A N/A N/A CALM      29.97S
FAYETTEVILLE   CLEAR     75  72  88 CALM      30.01S
MCMINNVILLE    CLEAR     75  75 100 CALM      30.02S
SHELBYVILLE    CLEAR     73  73 100 E5        30.01S
TULLAHOMA      CLEAR     73  70  88 SE3       30.03S
WINCHESTER     CLEAR     73  72  94 CALM      30.02S
$$


...KEY TO REMARKS...
VSB - VISIBILITY IN MILES
WCI - WIND CHILL INDEX
HX  - HEAT INDEX





USA.gov is the U.S. government's official web portal to all federal, state and local government web resources and services.